Flag for Denmark Weather past 2 weeks in Copenhagen, Denmark

Now
36 °F

Light rain. Partly sunny.


Feels Like: 25 °F
Forecast: 38 / 44 °F
Wind: 20 mph from Southeast

Location: Koebenhavn-Kastrup Airport

Current Time: Mar 31, 2015 at 1:47:09 PM

Latest Report: Mar 31, 2015 at 1:20 PM


Visibility: N/A

Pressure: 28.91 "Hg

Humidity: 93%

Dew point: 34 °F

Location of CopenhagenLocation

Historic Weather in Copenhagen — Graph

°F

Copenhagen temperature yesterday

Maximum temperature yesterday: 48 °F (at 3:20 PM)
Minimum temperature yesterday: 39 °F (at 4:20 AM)
Average temperature yesterday: 43 °F

Past Weeks' High & Low Weather Summary

 TemperatureHumidityPressure
High52 °F (Mar 16, 12:50 PM)100% (Mar 20, 1:20 AM)30.63 "Hg (Mar 20, 1:20 AM)
Low27 °F (Mar 22, 5:50 AM)37% (Mar 19, 1:50 PM)28.88 "Hg (Mar 30, 2:20 AM)
Average41 °F79%29.95 "Hg
* Reported Mar 16 11:20 AM — Mar 31 12:20 PM, Copenhagen, Weather by CustomWeather, © 2015

Note: Actual official high and low records may vary slightly from our data, if they occured in-between our weather recording intervals... More about our weather records

Advertising

Copenhagen weather history for previous 24 hours

 ConditionsComfort  
Time TempWeatherWind HumidityBarometerVisibility
12:20 PM
Tue, Mar 31
36 °FLight rain. Partly sunny.23 mph93%28.91 "Hg5 mi
11:50 AM36 °FLight rain. Partly sunny.25 mph93%28.94 "HgN/A
11:20 AM36 °FLight rain. Partly sunny.23 mph93%28.94 "HgN/A
10:50 AM36 °FLight rain. Partly sunny.25 mph93%28.97 "HgN/A
10:20 AM36 °FLight rain. Partly sunny.23 mph93%28.97 "Hg5 mi
9:50 AM36 °FLight rain. Partly sunny.22 mph93%29.00 "HgN/A
9:20 AM36 °FLight rain. Partly sunny.22 mph93%29.03 "HgN/A
8:50 AM36 °FLight rain. Partly sunny.20 mph93%29.06 "HgN/A
8:20 AM37 °FLight rain. Broken clouds.22 mph87%29.06 "Hg6 mi
7:50 AM39 °FLight rain. Broken clouds.17 mph75%29.09 "HgN/A
7:20 AM39 °FPassing clouds.13 mph75%29.09 "HgN/A
6:50 AM39 °FPartly cloudy.12 mph81%29.12 "HgN/A
6:20 AM37 °FPartly cloudy.13 mph87%29.15 "HgN/A
5:50 AM39 °FPassing clouds.13 mph87%29.18 "HgN/A
5:20 AM39 °FPassing clouds.12 mph87%29.21 "HgN/A
4:50 AM37 °FPassing clouds.9 mph93%29.24 "HgN/A
4:20 AM37 °FPassing clouds.10 mph87%29.27 "HgN/A
3:50 AM37 °FPassing clouds.9 mph87%29.30 "HgN/A
3:20 AM37 °FPassing clouds.13 mph81%29.33 "HgN/A
2:50 AM37 °FPassing clouds.13 mph87%29.33 "HgN/A
2:20 AM37 °FPassing clouds.17 mph81%29.36 "HgN/A
1:20 AM39 °FPassing clouds.16 mph75%29.36 "HgN/A
12:50 AM39 °FPassing clouds.20 mph75%29.36 "HgN/A
12:20 AM39 °FPassing clouds.23 mph75%29.36 "HgN/A
11:50 PM
Mon, Mar 30
41 °FPartly cloudy.20 mph70%29.36 "HgN/A
11:20 PM41 °FPartly cloudy.23 mph70%29.36 "HgN/A
10:50 PM41 °FPassing clouds.25 mph76%29.36 "HgN/A
10:20 PM43 °FPassing clouds.24 mph71%29.36 "HgN/A
9:50 PM43 °FPassing clouds.20 mph71%29.33 "HgN/A
9:20 PM43 °FPassing clouds.23 mph71%29.33 "HgN/A
8:50 PM45 °FPassing clouds.21 mph66%29.30 "HgN/A
8:20 PM45 °FPartly sunny.24 mph66%29.30 "HgN/A
7:50 PM45 °FPartly sunny.25 mph71%29.27 "HgN/A
7:20 PM46 °FPartly sunny.25 mph62%29.27 "HgN/A
6:50 PM46 °FPartly sunny.29 mph62%29.24 "HgN/A
6:20 PM48 °FPartly sunny.22 mph58%29.21 "HgN/A
5:50 PM48 °FPartly sunny.28 mph58%29.21 "HgN/A
5:20 PM48 °FPartly sunny.28 mph62%29.18 "HgN/A
4:20 PM48 °FPartly sunny.26 mph62%29.15 "HgN/A
3:50 PM48 °FPartly sunny.25 mph62%29.15 "HgN/A
3:20 PM48 °FBroken clouds.25 mph58%29.12 "HgN/A
2:50 PM46 °FBroken clouds.22 mph66%29.12 "HgN/A
2:20 PM46 °FBroken clouds.20 mph62%29.09 "HgN/A
1:50 PM45 °FPartly sunny.24 mph71%29.09 "HgN/A
1:20 PM45 °FBroken clouds.24 mph71%29.06 "HgN/A
Weather by CustomWeather, © 2015

See weather overviewHow to use our weather pages